Regional Weather Roundup
Issued by NWS

Home | Current Version | Previous Version | Text Only | Print | Product List | Glossary Off
Versions: 1 2 3 4 5 6 7 8 9 10 11 12 13 14 15 16 17 18 19 20 21 22 23 24 25 26 27 28 29 30 31 32 33 34 35 36 37 38 39 40 41 42 43 44 45 46 47 48 49 50

000
ASUS43 KLMK 261110
RWRKY
KENTUCKY REGIONAL WEATHER ROUNDUP
NATIONAL WEATHER SERVICE LOUISVILLE KY
700 AM EDT FRI MAY 26 2017

NOTE "FAIR" INDICATES FEW OR NO CLOUDS BELOW 12,000 FEET
WITH NO SIGNIFICANT WEATHER AND/OR OBSTRUCTIONS TO VISIBILITY.

KYZ001>023-026-027-061>063-070>075-261200-
WESTERN AND SOUTH CENTRAL KENTUCKY

CITY           SKY/WX    TMP DP  RH WIND       PRES   REMARKS
PADUCAH        CLEAR     62  53  72 S6        29.85S
HENDERSON      CLEAR     57  53  86 S6        29.88S
OWENSBORO      CLEAR     56  53  90 CALM      29.91R
HOPKINSVILLE   CLEAR     58  53  83 CALM      29.91R
BOWLING GREEN  CLEAR     57  53  86 S3        29.94R
GLASGOW        CLEAR     53  53 100 CALM      29.95R
$$

KYZ024-025-028>034-038-045-046-053-261200-
NORTH CENTRAL KENTUCKY

CITY           SKY/WX    TMP DP  RH WIND       PRES   REMARKS
LOUISVILLE/SDF PTCLDY    56  54  93 SE3       29.91R
LOUISVILLE/LOU CLEAR     55  55 100 CALM      29.91R FOG
FORT KNOX      CLEAR     54  52  94 SW3       29.90R
$$

KYZ035>037-039>044-047>052-055>060-089>105-261200-
NORTHEAST KENTUCKY

CITY           SKY/WX    TMP DP  RH WIND       PRES   REMARKS
LEXINGTON      CLEAR     55  51  86 SW7       29.93R
COVINGTON      PTCLDY    50  50 100 SW3       29.89R
FRANKFORT      CLEAR     53  50  89 SW5       29.91R FOG
$$

KYZ054-064>069-076>088-106>120-261200-
SOUTHEAST KENTUCKY

CITY           SKY/WX    TMP DP  RH WIND       PRES   REMARKS
JACKSON        CLEAR     54  53  97 CALM      29.94R
LONDON         CLEAR     51  50  96 CALM      29.96R FOG
SOMERSET       CLEAR     50  50 100 CALM      29.97R FOG
MIDDLESBORO    CLEAR     49  49 100 CALM      29.99R FOG
MONTICELLO     SUNNY     48  47  96 W9        29.98R
$$




USA.gov is the U.S. government's official web portal to all federal, state and local government web resources and services.